Location: Newark
(41.0400°S, 62.7845°W)
Time: 00:42:20
(UTC+00:00)

ISS - Pass Details

Date: 31 October 2021
Orbit: 417 x 423 km, 51.6° (Epoch: 01 December)

Event Time Altitude Azimuth Distance (km) Brightness Sun altitude
Rises 00:33:02 0° 234° (SW) 2,414 1.9 -17.8°
Reaches altitude 10° 00:35:10 10° 232° (SW) 1,543 0.4 -18.1°
Maximum altitude 00:38:38 81° 146° (SE) 444 -3.8 -18.6°
Enters shadow 00:39:06 64° 74° (ENE) 484 -3.8 -18.7°
